Regional Weather Roundup
Issued by NWS Green Bay, WI

Home | Current Version | Previous Version | Graphics & Text | Print | Product List | Glossary Off
Versions: 1 2 3 4 5 6 7 8 9 10 11 12 13 14 15 16 17 18 19 20 21 22 23 24 25 26 27 28 29 30 31 32 33 34 35 36 37 38 39 40 41 42 43 44 45 46 47 48 49 50

000
ASUS43 KGRB 061659
RWRGRB

NORTH-CENTRAL AND NORTHEAST WISCONSIN REGIONAL WEATHER ROUNDUP
NATIONAL WEATHER SERVICE GREEN BAY WI
1100 AM CST FRI MAR 06 2015

WIZ005-009-010>012-018-019-061800-
NORTH CENTRAL WISCONSIN

CITY           SKY/WX    TMP DP  RH WIND       PRES   REMARKS
IRONWOOD       MOSUNNY   21   7  53 SW14      29.92F WCI   8
MANITOWISH WTR NOT AVBL
ARBOR VITAE    NOT AVBL
EAGLE RIVER    NOT AVBL
LAND O LAKES   NOT AVBL
RHINELANDER    CLOUDY    15   3  59 SW10G18   29.99F WCI   2
PHILLIPS       NOT AVBL
ANTIGO         NOT AVBL
TOMAHAWK       NOT AVBL
MERRILL        NOT AVBL
$$

WIZ013-073-061800-
NORTHEAST WISCONSIN

CITY           SKY/WX    TMP DP  RH WIND       PRES   REMARKS
IRON MOUNTAIN  SUNNY     25   6  44 SW10      29.98F
MARINETTE      SUNNY     18   3  53 SW14      30.11F WCI   4
$$

WIZ017-030-035>037-045-061800-
CENTRAL WISCONSIN

CITY           SKY/WX    TMP DP  RH WIND       PRES   REMARKS
MEDFORD        NOT AVBL
WAUSAU         CLOUDY    18   5  57 SW14      30.05F WCI   4
MOSINEE        PTSUNNY   18   7  62 S13       30.08F WCI   4
MARSHFIELD     CLOUDY    21   8  57 SW13      30.07F WCI   9
WISC RAPIDS    CLOUDY    22   6  50 SW14      30.11F WCI   9
STEVENS POINT  NOT AVBL
WAUPACA        NOT AVBL
SHAWANO        NOT AVBL
CLINTONVILLE   NOT AVBL
$$

WIZ038-039-048-051-061800-
FOX VALLEY

CITY           SKY/WX    TMP DP  RH WIND       PRES   REMARKS
NWS GREEN BAY  MOSUNNY   17   6  62 S16G23    30.16F WCI   2
APPLETON       MOSUNNY   18   5  57 S17G25    30.15F WCI   2
OSHKOSH        MOSUNNY   20   7  57 SW21G31   30.17F WCI   4
FOND DU LAC    SUNNY     21   5  50 S17G29    30.18F WCI   7
$$

WIZ022-050-052-061800-
EAST CENTRAL WISCONSIN

CITY           SKY/WX    TMP DP  RH WIND       PRES   REMARKS
STURGEON BAY   PTSUNNY   19   3  49 SW23      30.15F WCI   2
MANITOWOC      NOT AVBL
SHEBOYGAN      MOSUNNY   21   7  54 S20       30.21F WCI   6
$$

LMZ563-521-522-541>543-061800-
LAKESHORE

STATION/POSITION TIME  TEMP    WIND        PRES    VSBY  WAVE
                       AIR SEA DIR/SP/G                  HT/PER
                 (UTC) (F)     (DEG/KT/KT) (MB)    (MI)  (FT/S)
SHEBOYGAN LKSHOR 1600   17     210/ 20/ 23 1025.7F
KEWAUNEE LKSHORE 1600   18     210/ 11/ 15 1021.5F
TWO RIVERS CG    1600   16                   N/A       6   0
NORTHPORT PIER   1600   18     220/  9/ 19 1021.0F
STURGEON BAY CG  1600   17     210/  9     1024.3   3 1/2
CHAMBERS ISLAND  1600   13     180/ 12/ 19 1020.7F
MENOMINEE LKSHOR 1600   14     190/ 11     1021.0F
$$



USA.gov is the U.S. government's official web portal to all federal, state and local government web resources and services.